When you browse on this site, cookies collect data to enhance your experience and personalize the content and advertising you see.
Visit our Privacy Policy to learn more. By continuing to use the site, you agree to this use of cookies and data.
  • In United Kingdom
  • List of Countries
  • For 7 days
  • Water Temperature
  • Weather Map
  • Weather Widgets
  • user-avatar
    Login

    Hourly Weather Sliven

    Today, 14 October, Monday

    Time Temperature Precipitation Wind Pressure Humidity
    00:00 +14°C° 0 mm 1 mps 737 mmHg 66%
    01:00 +14°C° 0 mm 1 mps 737 mmHg 65%
    02:00 +13°C° 0 mm 0 mps 737 mmHg 67%
    03:00 +13°C° 0 mm 0 mps 737 mmHg 66%
    04:00 +12°C° 0 mm 0 mps 737 mmHg 66%
    05:00 +12°C° 0 mm 0 mps 737 mmHg 65%
    06:00 +13°C° 0 mm 0 mps 737 mmHg 62%
    07:00 +14°C° 0 mm 0 mps 737 mmHg 60%
    08:00 +16°C° 0 mm 0 mps 738 mmHg 57%
    09:00 +17°C° 0 mm 0 mps 738 mmHg 50%
    10:00 +21°C° 0 mm 1 mps 738 mmHg 43%
    11:00 +23°C° 0 mm 1 mps 738 mmHg 36%
    12:00 +24°C° 0 mm 1 mps 737 mmHg 33%
    13:00 +25°C° 0 mm 1 mps 737 mmHg 29%
    14:00 +26°C° 0 mm 1 mps 737 mmHg 26%
    15:00 +25°C° 0 mm 1 mps 736 mmHg 30%
    16:00 +23°C° 0 mm 1 mps 736 mmHg 34%
    17:00 +22°C° 0 mm 1 mps 735 mmHg 39%
    18:00 +20°C° 0 mm 1 mps 736 mmHg 46%
    19:00 +19°C° 0 mm 1 mps 736 mmHg 54%
    20:00 +16°C° 0 mm 1 mps 736 mmHg 61%
    21:00 +16°C° 0 mm 1 mps 736 mmHg 65%
    22:00 +15°C° 0 mm 1 mps 735 mmHg 68%
    23:00 +14°C° 0 mm 1 mps 735 mmHg 72%

    Tomorrow, 15 October, Tuesday

    Time Temperature Precipitation Wind Pressure Humidity
    00:00 +14°C° 0 mm 1 mps 735 mmHg 71%
    01:00 +14°C° 0 mm 1 mps 735 mmHg 71%
    02:00 +13°C° 0 mm 0 mps 735 mmHg 70%
    03:00 +13°C° 0 mm 0 mps 735 mmHg 67%
    04:00 +13°C° 0 mm 0 mps 734 mmHg 65%
    05:00 +12°C° 0 mm 0 mps 734 mmHg 62%
    06:00 +13°C° 0 mm 0 mps 734 mmHg 60%
    07:00 +14°C° 0 mm 0 mps 735 mmHg 58%
    08:00 +15°C° 0 mm 0 mps 735 mmHg 56%
    09:00 +18°C° 0 mm 0 mps 735 mmHg 49%
    10:00 +22°C° 0 mm 1 mps 735 mmHg 43%
    11:00 +24°C° 0 mm 1 mps 735 mmHg 36%
    12:00 +25°C° 0 mm 1 mps 735 mmHg 34%
    13:00 +26°C° 0 mm 1 mps 734 mmHg 31%
    14:00 +26°C° 0 mm 2 mps 734 mmHg 28%
    15:00 +25°C° 0 mm 2 mps 734 mmHg 34%
    16:00 +24°C° 0 mm 1 mps 733 mmHg 39%
    17:00 +22°C° 0 mm 1 mps 733 mmHg 44%
    18:00 +21°C° 0 mm 1 mps 733 mmHg 53%
    19:00 +19°C° 0 mm 1 mps 733 mmHg 62%
    20:00 +16°C° 0 mm 1 mps 733 mmHg 71%
    21:00 +16°C° 0 mm 1 mps 733 mmHg 74%
    22:00 +15°C° 0 mm 1 mps 733 mmHg 77%
    23:00 +15°C° 0 mm 1 mps 733 mmHg 79%

    Day after tomorrow, 16 October, Wednesday

    Time Temperature Precipitation Wind Pressure Humidity
    00:00 +14°C° 0 mm 1 mps 733 mmHg 77%
    01:00 +14°C° 0 mm 1 mps 733 mmHg 75%
    02:00 +14°C° 0 mm 1 mps 733 mmHg 73%
    03:00 +13°C° 0 mm 0 mps 733 mmHg 72%
    04:00 +13°C° 0 mm 0 mps 733 mmHg 71%
    05:00 +12°C° 0 mm 0 mps 733 mmHg 70%
    06:00 +13°C° 0 mm 0 mps 733 mmHg 68%
    07:00 +14°C° 0 mm 0 mps 733 mmHg 66%
    08:00 +15°C° 0 mm 0 mps 734 mmHg 64%
    09:00 +17°C° 0 mm 0 mps 734 mmHg 58%
    10:00 +21°C° 0 mm 1 mps 734 mmHg 51%
    11:00 +23°C° 0 mm 1 mps 734 mmHg 45%
    12:00 +24°C° 0 mm 1 mps 734 mmHg 41%
    13:00 +25°C° 0 mm 1 mps 734 mmHg 37%
    14:00 +26°C° 0 mm 2 mps 734 mmHg 33%
    15:00 +25°C° 0 mm 1 mps 733 mmHg 37%
    16:00 +24°C° 0 mm 1 mps 733 mmHg 42%
    17:00 +22°C° 0 mm 1 mps 733 mmHg 46%
    18:00 +21°C° 0 mm 1 mps 733 mmHg 53%
    19:00 +19°C° 0 mm 1 mps 733 mmHg 59%
    20:00 +18°C° 0 mm 1 mps 733 mmHg 66%
    21:00 +16°C° 0 mm 1 mps 733 mmHg 68%
    22:00 +16°C° 0 mm 1 mps 734 mmHg 71%
    23:00 +15°C° 0 mm 1 mps 734 mmHg 74%

    17 October, Thursday

    Time Temperature Precipitation Wind Pressure Humidity
    00:00 +15°C° 0 mm 1 mps 734 mmHg 74%
    01:00 +14°C° 0 mm 0 mps 734 mmHg 74%
    02:00 +13°C° 0 mm 0 mps 734 mmHg 74%
    03:00 +13°C° 0 mm 0 mps 734 mmHg 72%
    04:00 +13°C° 0 mm 0 mps 734 mmHg 71%
    05:00 +13°C° 0 mm 0 mps 733 mmHg 70%
    06:00 +14°C° 0 mm 0 mps 734 mmHg 67%
    07:00 +15°C° 0 mm 0 mps 734 mmHg 63%
    08:00 +16°C° 0 mm 0 mps 734 mmHg 60%
    09:00 +20°C° 0 mm 1 mps 734 mmHg 53%
    10:00 +22°C° 0 mm 1 mps 735 mmHg 46%
    11:00 +24°C° 0 mm 1 mps 735 mmHg 39%
    12:00 +24°C° 0 mm 1 mps 735 mmHg 36%
    13:00 +25°C° 0 mm 1 mps 734 mmHg 34%
    14:00 +25°C° 0 mm 2 mps 734 mmHg 32%
    15:00 +24°C° 0 mm 1 mps 734 mmHg 36%
    16:00 +23°C° 0 mm 1 mps 734 mmHg 39%
    17:00 +22°C° 0 mm 1 mps 733 mmHg 43%
    18:00 +21°C° 0 mm 1 mps 733 mmHg 47%
    19:00 +19°C° 0 mm 1 mps 734 mmHg 51%
    20:00 +18°C° 0 mm 1 mps 734 mmHg 55%
    21:00 +18°C° 0 mm 1 mps 734 mmHg 58%
    22:00 +16°C° 0 mm 1 mps 734 mmHg 61%
    23:00 +15°C° 0 mm 0 mps 734 mmHg 63%

    18 October, Friday

    Time Temperature Precipitation Wind Pressure Humidity
    00:00 +14°C° 0 mm 0 mps 734 mmHg 65%
    01:00 +15°C° 0 mm 1 mps 734 mmHg 66%
    02:00 +15°C° 0 mm 1 mps 734 mmHg 68%
    03:00 +15°C° 0 mm 1 mps 734 mmHg 66%
    04:00 +14°C° 0 mm 0 mps 734 mmHg 64%
    05:00 +14°C° 0 mm 0 mps 734 mmHg 62%
    06:00 +15°C° 0 mm 0 mps 734 mmHg 60%
    07:00 +15°C° 0 mm 0 mps 734 mmHg 57%
    08:00 +16°C° 0 mm 0 mps 735 mmHg 54%
    09:00 +18°C° 0 mm 0 mps 735 mmHg 48%
    10:00 +22°C° 0 mm 1 mps 735 mmHg 42%
    11:00 +24°C° 0 mm 1 mps 735 mmHg 35%
    12:00 +25°C° 0 mm 1 mps 735 mmHg 33%
    13:00 +25°C° 0 mm 1 mps 735 mmHg 31%
    14:00 +26°C° 0 mm 2 mps 734 mmHg 29%
    15:00 +24°C° 0 mm 2 mps 734 mmHg 32%
    16:00 +23°C° 0 mm 1 mps 734 mmHg 36%
    17:00 +22°C° 0 mm 1 mps 734 mmHg 40%
    18:00 +20°C° 0 mm 1 mps 734 mmHg 44%
    19:00 +19°C° 0 mm 1 mps 734 mmHg 48%
    20:00 +18°C° 0 mm 1 mps 734 mmHg 53%
    21:00 +16°C° 0 mm 1 mps 734 mmHg 55%
    22:00 +16°C° 0 mm 1 mps 734 mmHg 58%
    23:00 +15°C° 0 mm 1 mps 734 mmHg 61%

    19 October, Saturday

    Time Temperature Precipitation Wind Pressure Humidity
    00:00 +14°C° 0 mm 0 mps 734 mmHg 62%
    01:00 +14°C° 0 mm 0 mps 734 mmHg 64%
    02:00 +13°C° 0 mm 0 mps 733 mmHg 66%
    03:00 +13°C° 0 mm 0 mps 733 mmHg 66%
    04:00 +13°C° 0 mm 0 mps 733 mmHg 67%
    05:00 +13°C° 0 mm 0 mps 733 mmHg 68%
    06:00 +13°C° 0 mm 0 mps 733 mmHg 65%
    07:00 +14°C° 0 mm 0 mps 734 mmHg 63%
    08:00 +15°C° 0 mm 0 mps 734 mmHg 60%
    09:00 +17°C° 0 mm 0 mps 734 mmHg 53%
    10:00 +21°C° 0 mm 1 mps 734 mmHg 45%
    11:00 +23°C° 0 mm 1 mps 734 mmHg 38%
    12:00 +24°C° 0 mm 1 mps 734 mmHg 35%
    13:00 +24°C° 0 mm 1 mps 734 mmHg 32%
    14:00 +25°C° 0 mm 2 mps 734 mmHg 30%
    15:00 +24°C° 0 mm 2 mps 733 mmHg 34%
    16:00 +23°C° 0 mm 2 mps 733 mmHg 38%
    17:00 +20°C° 0 mm 2 mps 733 mmHg 43%
    18:00 +19°C° 0 mm 2 mps 733 mmHg 53%
    19:00 +17°C° 0 mm 2 mps 733 mmHg 63%
    20:00 +15°C° 0 mm 2 mps 733 mmHg 73%
    21:00 +15°C° 0 mm 1 mps 733 mmHg 78%
    22:00 +14°C° 0 mm 1 mps 733 mmHg 83%
    23:00 +14°C° 0 mm 1 mps 734 mmHg 88%
    Show more